Content
SEND FEEDBACK

Daily
Averages
Monthly
Summary
Nepal

BIRGANI, NEPAL


Home > Asia > Nepal
Elevation: 450 feet     Latitude: 27 09N     Longitude: 084 58E

WEATHER
 
SELECT A DAY
Number of Records: 204,572;   Date Range: 2/23/06 - 7/27/14
 
SHARE

PRINT THIS DATA

[ ← Previous Day ]
WEATHER ALMANAC - JANUARY 31, 2013
[ Next Day → ]
[ °C ]   °F
Weather ElementAverageHighLow
Temperature41.8 °F53.6 °F (1:15 am)32.2 °F (8:35 pm)
Dewpoint26.8 °F52.2 °F (12:55 am)18.5 °F (1:35 pm)
Humidity57.4 %97 % (12:35 am)37 % (1:15 pm)
Barometer29.80 in29.97 in (7:35 pm)29.43 in (12:55 am)
Wind Speed10.4 mph19.6 mph (3:35 am)
Wind Gust32.2 mph (3:35 pm)
Weather ElementAverage
Visibility9.9 mi
Wind DirectionWSW (235.9 °)

Weather ElementTotal
Precipitation0.46 in
Heating Degree Days22.1 (Base 65)
Averaged from 70 records on January 31, 2013
WEATHER CONDITIONS BREAKOUT
WIND DIRECTION BREAKOUT
WEATHER BY HOUR - JANUARY 31, 2013
[ °C ]   °F
Local TimeTemperatureDewpointHumidityBarometerVisibilityWind DirectionWind SpeedGust SpeedPrecipitationEventsConditions
12:35 AM52.9 °F52.0 °F97 %29.44 in10.0 miSW (220°)5.8 mph0.11 inRainRain
12:55 AM53.4 °F52.2 °F95 %29.43 in10.0 miWSW (250°)6.9 mph0.12 inRainLight Rain
1:15 AM53.6 °F52.0 °F94 %29.43 in10.0 miWSW (240°)9.2 mph0.01 inRainRain
1:35 AM52.7 °F50.9 °F94 %29.45 in5.0 miWSW (250°)12.7 mph20.7 mph0.06 inRainLight Rain
1:55 AM52.3 °F49.8 °F91 %29.45 in7.0 miWest (260°)15.0 mph24.2 mph0.08 inRainLight Rain
2:35 AM51.4 °F49.3 °F92 %29.46 in10.0 miSW (230°)11.5 mph17.3 mph0.01 inDrizzle
2:55 AM50.9 °F49.1 °F94 %29.48 in10.0 miSW (220°)10.4 mph17.3 mph0.01 inDrizzle
3:15 AM50.2 °F47.1 °F89 %29.50 in10.0 miWest (270°)10.4 mph21.9 mph0.02 inRainLight Rain
3:35 AM49.1 °F41.4 °F75 %29.52 in10.0 miWSW (250°)19.6 mph27.6 mph0.02 inOvercast
3:55 AM48.2 °F37.6 °F67 %29.53 in10.0 miWest (260°)16.1 mph26.5 mph0.02 inOvercast
4:15 AM47.3 °F36.7 °F67 %29.55 in10.0 miWest (260°)11.5 mph19.6 mphMostly Cloudy
4:35 AM46.9 °F36.3 °F67 %29.57 in10.0 miWest (260°)15.0 mph20.7 mphMostly Cloudy
4:55 AM46.4 °F35.8 °F67 %29.59 in10.0 miWest (270°)10.4 mph18.4 mphMostly Cloudy
5:15 AM45.5 °F35.8 °F69 %29.61 in10.0 miWNW (290°)11.5 mph18.4 mphScattered Clouds
5:35 AM44.1 °F34.3 °F69 %29.64 in10.0 miWest (280°)17.3 mph25.3 mphScattered Clouds
5:55 AM43.0 °F32.0 °F65 %29.65 in10.0 miWest (270°)16.1 mph21.9 mphScattered Clouds
6:15 AM41.9 °F31.3 °F66 %29.67 in10.0 miWest (270°)16.1 mph25.3 mphScattered Clouds
6:35 AM40.8 °F29.8 °F65 %29.69 in10.0 miWest (270°)10.4 mph25.3 mphClear
6:55 AM40.5 °F28.2 °F62 %29.71 in10.0 miWest (260°)13.8 mph23.0 mphMostly Cloudy
7:15 AM39.9 °F26.8 °F59 %29.74 in10.0 miWest (270°)16.1 mph29.9 mphScattered Clouds
7:35 AM39.2 °F26.1 °F59 %29.75 in10.0 miWest (270°)8.1 mph18.4 mphClear
7:55 AM38.7 °F26.6 °F62 %29.76 in10.0 miWNW (290°)10.4 mphClear
8:15 AM39.4 °F25.5 °F58 %29.79 in10.0 miWest (270°)10.4 mphClear
8:35 AM39.7 °F23.9 °F53 %29.81 in10.0 miWest (270°)10.4 mph19.6 mphClear
8:55 AM40.1 °F22.6 °F50 %29.81 in10.0 miWNW (290°)11.5 mph17.3 mphClear
9:15 AM41.0 °F23.5 °F50 %29.83 in10.0 miWest (280°)10.4 mph18.4 mphClear
9:35 AM41.2 °F25.2 °F53 %29.84 in10.0 miWNW (290°)12.7 mph23.0 mphClear
9:55 AM41.5 °F25.2 °F52 %29.85 in10.0 miWest (270°)15.0 mph20.7 mphMostly Cloudy
10:15 AM41.0 °F23.9 °F51 %29.86 in10.0 miWest (280°)11.5 mph20.7 mphOvercast
10:35 AM42.1 °F23.4 °F48 %29.86 in10.0 miWest (260°)13.8 mph20.7 mphMostly Cloudy
10:55 AM42.3 °F22.6 °F46 %29.87 in10.0 miWest (280°)13.8 mph24.2 mphScattered Clouds
11:15 AM43.2 °F21.7 °F43 %29.88 in10.0 miWest (270°)16.1 mph25.3 mphScattered Clouds
11:35 AM43.2 °F21.9 °F43 %29.88 in10.0 miWest (280°)19.6 mph25.3 mphScattered Clouds
11:55 AM44.6 °F23.0 °F43 %29.87 in10.0 miWNW (290°)17.3 mph27.6 mphScattered Clouds
12:15 PM45.1 °F23.9 °F43 %29.86 in10.0 miWest (270°)16.1 mph21.9 mphMostly Cloudy
12:35 PM43.5 °F20.7 °F40 %29.86 in10.0 miWest (280°)12.7 mph28.8 mphScattered Clouds
12:55 PM43.5 °F20.1 °F39 %29.86 in10.0 miWest (270°)13.8 mph31.1 mphScattered Clouds
1:15 PM44.2 °F19.0 °F37 %29.86 in10.0 miWest (270°)16.1 mph26.5 mphScattered Clouds
1:35 PM42.3 °F18.5 °F39 %29.87 in10.0 miWest (280°)17.3 mph28.8 mphClear
1:55 PM44.1 °F18.9 °F37 %29.87 in10.0 miWest (280°)11.5 mph28.8 mphClear
2:15 PM44.4 °F19.6 °F37 %29.87 in10.0 miWNW (290°)10.4 mph27.6 mphClear
2:35 PM43.5 °F19.8 °F39 %29.88 in10.0 miWNW (300°)10.4 mph19.6 mphMostly Cloudy
2:55 PM44.6 °F20.8 °F39 %29.88 in10.0 miWNW (290°)11.5 mph17.3 mphOvercast
3:15 PM45.7 °F20.7 °F37 %29.89 in10.0 miWest (270°)13.8 mph28.8 mphMostly Cloudy
3:35 PM43.9 °F18.7 °F37 %29.91 in10.0 miWest (260°)19.6 mph32.2 mphScattered Clouds
3:55 PM42.3 °F18.9 °F39 %29.92 in10.0 miWest (280°)17.3 mph28.8 mphScattered Clouds
4:15 PM41.9 °F19.0 °F40 %29.93 in10.0 miWest (280°)13.8 mph23.0 mphClear
4:35 PM41.5 °F19.2 °F41 %29.93 in10.0 miWNW (290°)11.5 mph21.9 mphScattered Clouds
4:55 PM42.1 °F20.7 °F42 %29.94 in10.0 miWest (270°)4.6 mph18.4 mphMostly Cloudy
5:15 PM41.5 °F21.4 °F45 %29.94 in10.0 miWest (270°)5.8 mphMostly Cloudy
5:35 PM40.5 °F18.9 °F42 %29.95 in10.0 miWest (260°)12.7 mph23.0 mphScattered Clouds
5:55 PM39.4 °F19.2 °F44 %29.95 in10.0 miWSW (250°)15.0 mph19.6 mphClear
6:15 PM38.8 °F19.4 °F46 %29.95 in10.0 miWSW (250°)9.2 mph17.3 mphClear
6:35 PM38.1 °F19.0 °F46 %29.96 in10.0 miWSW (250°)9.2 mphClear
6:55 PM37.6 °F18.7 °F47 %29.96 in10.0 miWSW (250°)4.6 mphClear
7:15 PM36.3 °F19.0 °F50 %29.96 in10.0 miCalmClear
7:35 PM34.0 °F19.8 °F56 %29.97 in10.0 miCalmClear
7:55 PM33.6 °F21.4 °F61 %29.97 in10.0 miSSW (210°)3.5 mphClear
8:15 PM33.3 °F21.7 °F63 %29.97 in10.0 miCalmClear
8:35 PM32.2 °F22.1 °F66 %29.97 in10.0 miCalmClear
8:55 PM33.6 °F22.1 °F63 %29.97 in10.0 miCalmClear
9:15 PM32.4 °F22.3 °F66 %29.96 in10.0 miCalmClear
9:35 PM34.0 °F21.9 °F61 %29.96 in10.0 miSW (220°)3.5 mphClear
9:55 PM34.0 °F21.6 °F60 %29.96 in10.0 miSW (220°)3.5 mphClear
10:15 PM34.2 °F21.6 °F60 %29.97 in10.0 miSW (230°)3.5 mphClear
10:35 PM34.2 °F21.2 °F59 %29.97 in10.0 miSW (220°)4.6 mphClear
10:55 PM34.3 °F21.4 °F59 %29.97 in10.0 miSW (230°)4.6 mphClear
11:15 PM34.7 °F21.2 °F58 %29.96 in10.0 miSW (220°)5.8 mphClear
11:35 PM33.4 °F21.2 °F61 %29.96 in10.0 miSSW (210°)3.5 mphClear
11:55 PM33.8 °F21.7 °F61 %29.96 in10.0 miCalmClear
Hourly data recorded from KSIF, located miles away from Birgani, Nepal







STORIES FROM OUR PARTNERS